www.pogodaiklimat.ru

Погода и климат >> Архив погоды >> Россия >> Красноярский край >> Ачинск


АРХИВ ПОГОДЫ в Ачинске

Время (UTC), дата Ветер
(напр.,м/с)
 
Видим.   Явления Облачность Т
(С)
Тd
(С)
f
(%)
Тe
(С)
Тes
(С)
Комфортность P
(гПа)
Po
(гПа)
Тmin
(С)
Tmax
(С)
R
(мм)
R24
(мм)
S
(см)
09 15.04 С 2 20 км 8/8 600 м
[Cu hum Ci fib]
+1.7 -12.5 34 -1 +1 прохладно 1014.0 982.2
12 15.04 С 1 20 км 9/3 600 м
[Cu hum Ci]
+1.2 -13.5 32 +1 +1 по сезону 1012.5 980.6 +2.0 0.0
15 15.04 СВ 2 20 км 10/0
[Cs]
-2.0 -12.5 44 -5 -5 холодно 1011.4 979.2
18 15.04 СВ 2 20 км 10/0
[Cs]
-4.3 -12.4 53 -8 -8 холодно 1009.9 977.5
21 15.04 СВ 2 20 км 5/0
[Ci fib]
-5.8 -12.9 57 -10 -10 холодно 1008.3 975.8
00 16.04 СВ 2 20 км 3/0
[Ci fib]
-6.5 -12.2 64 -11 -10 холодно 1008.2 975.6 -6.9
03 16.04 СВ 2 20 км ясно -0.7 -11.7 43 -4 +3 прохладно 1007.7 975.8
06 16.04 С 1 20 км ясно +2.7 -15.1 26 +2 +15 опасность
простуды
1008.4 976.9
09 16.04 СЗ 1 20 км ясно +3.9 -14.5 25 +4 +11 по сезону 1008.9 977.5
12 16.04 З 1 20 км 3/0
[Ci fib]
+3.9 -14.9 24 +4 +4 по сезону 1010.0 978.6 +4.9
15 16.04 ЮВ 1 20 км ясно +1.4 -14.0 31 +1 +1 по сезону 1011.5 979.7
18 16.04 Ю 2 20 км ясно -0.3 -13.7 36 -3 -3 по сезону 1012.2 980.2
21 16.04 Ю 2 20 км ясно -1.7 -10.9 49 -5 -5 по сезону 1013.0 980.9
00 17.04 Ю 2 20 км 9/0
[Ci fib]
-0.9 -9.4 52 -4 -3 по сезону 1013.2 981.1 -2.6
03 17.04 ЮЗ 4 10 км дым 10/3 600 м
[Sc Cs]
+3.4 -7.8 44 -0 +2 по сезону 1012.4 980.8
06 17.04 ЮЗ 7-13
{14}
20 км 6/6 600 м
[Cu med, cong]
+7.4 -9.0 30 +4 +5 по сезону 1010.3 979.2
09 17.04 ЮЗ 5-10
{13}
20 км 9/5 600 м
[Cu med, cong Cc]
+9.2 -10.8 23 +7 +8 тепло 1007.9 977.1
12 17.04 З 3
{11}
20 км 9/4 1000 м
[Sc Ac trans]
+5.4 -6.9 41 +3 +3 по сезону 1007.4 976.2 +9.4
15 17.04 ЮЗ 3 20 км 3/3 1000 м
[Sc diur, vesp]
+3.1 -6.4 50 -0 -0 по сезону 1006.6 975.2
18 17.04 Ю 2 20 км 10/0
[As trans]
+2.6 -5.6 55 0 0 по сезону 1004.2 972.8
21 17.04 Ю 3 20 км 10/0
[Cs]
+1.9 -5.8 57 -2 -2 по сезону 1000.1 968.7
00 18.04 Ю 4
{10}
20 км 10/8 600 м
[Cb cap Cs]
+2.4 -4.8 59 -2 -2 по сезону 994.3 963.3 +1.0
03 18.04 ЮЗ 7-15
{15}
4000 м ливневой дождь 10/10 600 м
[Cb cap]
+3.7 +2.0 89 -2 -2 по сезону 990.4 959.6
06 18.04 ЮЗ 10-18
{27}
20 км в посл. час ливневой снег 8/8 600 м
[Cb cap]
+1.9 +0.4 90 -6 -6 очень
холодно
991.7 960.6
09 18.04 З 10-21
{24}
20 км 8/8 600 м
[Cb cap]
-0.4 -9.2 51 -8 -8 очень
холодно
1001.2 969.5
12 18.04 ЮЗ 9-16
{21}
20 км 8/8 600 м
[Cb cap]
-3.9 -12.2 52 -12 -12 очень
холодно
1008.1 975.8 +6.0 2
15 18.04 ЮЗ 10-17
{20}
20 км {ливн. осадки} 6/6 600 м
[Cb cap]
-7.2 -14.8 55 -17 -17 очень
холодно
1012.5 979.7
18 18.04 ЮЗ 8-12
{17}
20 км слаб. ливневой снег 9/9 600 м
[Cb cap]
-9.1 -12.3 78 -19 -19 очень
холодно
1015.3 982.2
21 18.04 ЮЗ 9-16
{17}
4000 м слаб. ливневой снег 10/10 600 м
[Cb cap]
-7.3 -9.4 85 -17 -17 очень
холодно
1016.9 984.0
00 19.04 ЮЗ 7-14
{16}
4000 м слаб. ливневой снег {метель} 10/10 600 м
[Cb cap]
-6.6 -9.0 83 -15 -15 очень
холодно
1020.7 987.7 -9.1 0.3 1
03 19.04 З 7-13
{16}
4000 м слаб. ливневой снег {метель} 8/8 600 м
[Cb cap]
-4.2 -10.7 60 -12 -12 очень
холодно
1023.6 990.8
06 19.04 ЮЗ 7-13
{17}
20 км {ливн. осадки, метель} ясно -1.3 -15.1 34 -8 -5 очень
холодно
1024.7 992.2
09 19.04 З 6-12
{15}
20 км 3/3 600 м
[Cu hum]
+1.1 -15.6 28 -4 -2 очень
холодно
1024.5 992.3
12 19.04 ЮЗ 5
{12}
20 км 4/3 600 м
[Sc Ac lent]
+1.3 -13.6 32 -3 -3 холодно 1023.3 991.1 +1.8 0.0
15 19.04 ЮЗ 2
{10}
20 км 1/0
[Ac trans]
-1.3 -10.6 49 -4 -4 холодно 1022.7 990.3
18 19.04 Ю 1 20 км ясно -3.0 -9.7 60 -5 -5 прохладно 1021.1 988.5
21 19.04 Ю 1 20 км ясно -4.0 -9.3 67 -6 -6 прохладно 1019.6 987.0
00 20.04 штиль 0 20 км 3/1 1000 м
[Sc Ci fib]
-3.9 -9.3 66 -5 -4 по сезону 1018.1 985.5 -5.1
03 20.04 С 1 20 км ясно +1.5 -8.9 46 +1 +9 опасность
простуды
1016.0 984.1
06 20.04 З 1 20 км 3/1 1000 м
[Cu hum Cc]
+4.6 -10.9 31 +4 +16 опасность
простуды
1013.3 981.9
09 20.04 ЮЗ 1 20 км 8/1 1000 м
[Cu hum Cc]
+6.7 -10.8 27 +7 +13 по сезону 1010.6 979.4
12 20.04 З 2 20 км 8/1 1000 м
[Cu hum Cc]
+6.0 -11.5 27 +5 +5 по сезону 1009.7 978.5 +7.2
15 20.04 С 2 20 км 3/0
[Ci fib]
+1.9 -9.5 43 -1 -1 прохладно 1010.0 978.3
18 20.04 ЮЗ 1 20 км 9/8 600 м
[Sc Ci fib]
-0.4 -8.1 56 -2 -2 по сезону 1009.8 977.9
21 20.04 ЮЗ 1 20 км 9/0
[Ci sp]
-1.0 -7.5 61 -3 -3 по сезону 1009.2 977.2
00 21.04 ЮЗ 2 20 км 9/0
[Cs]
-0.7 -7.7 59 -4 -3 по сезону 1009.1 977.2 -1.4
03 21.04 ЮЗ 5 20 км 10/3 1000 м
[Sc Ac trans Cc]
+3.8 -7.3 44 -0 +1 по сезону 1008.3 976.9
06 21.04 З 3
{11}
10 км слаб. ливневой снег 9/9 600 м
[Cb cap Ci fib]
+3.6 -2.6 64 0 +1 прохладно 1009.3 977.9
09 21.04 З 4
{11}
20 км {ливн. осадки} 9/9 600 м
[Cb cap]
+2.2 -1.6 76 -3 -2 очень
холодно
1011.0 979.3
12 21.04 С 3
{13}
20 км слаб. ливневой снег 6/6 600 м
[Cb cap]
+0.7 -3.2 75 -4 -3 очень
холодно
1013.5 981.6 +5.2 0.5
15 21.04 СЗ 3 20 км ясно -1.7 -9.1 57 -6 -6 очень
холодно
1017.1 984.8
18 21.04 З 1 20 км ясно -4.4 -9.1 70 -6 -6 холодно 1019.9 987.2
21 21.04 З 2 20 км 9/9 600 м
[Sc]
-5.1 -9.2 73 -9 -9 холодно 1021.8 989.0
00 22.04 З 1 20 км 8/8 600 м
[Sc]
-4.5 -8.2 75 -7 -6 прохладно 1023.4 990.6 -5.3
03 22.04 З 2 20 км 5/5 1000 м
[Cu hum]
-0.7 -9.5 51 -4 0 холодно 1024.5 992.0
06 22.04 З 2 20 км 9/1 1000 м
[Cu hum Ci fib]
+2.7 -11.0 36 +1 +9 опасность
простуды
1024.3 992.3

 

Местоположение метеостанции Ачинск (Красноярский край, Россия): широта 56.28 долгота 90.52 высота над уровнем моря 257 м.

В архиве по умолчанию представлена погода в Ачинске за последнюю неделю. Архивные данные за месяц целиком и за предыдущие месяцы, начиная с января 2011 года, Вы можете получить, выбрав интересующий диапазон дат из раскрывающегося списка и нажав кнопку "Ввод!".


*Определитесь, кто Вы:
робот инопланетянин человек

Внимание! Время в таблицах - всемирное. Для получения местного времени необходимо прибавить поправку, которая равна 7 ч.

Смотрите также архив погоды в соседних городах и на ближайших метеорологических станциях:

Погода в Назарово (Красноярский край, Россия) (30 км)
Погода в Большом Улуе (Красноярский край, Россия) (41 км)
Погода в Боготоле (Красноярский край, Россия) (58 км)
Погода в Кемчуге (Красноярский край, Россия) (74 км)
Погода в Тюхтете (Красноярский край, Россия) (79 км)
Погода в Новобирилюссах (Красноярский край, Россия) (88 км)
Погода в Каче (Красноярский край, Россия) (105 км)
Погода в Шумихе (Красноярский край, Россия) (116 км)
Погода в Шарыпово (Красноярский край, Россия) (117 км)
Погода в Ужуре (Красноярский край, Россия) (117 км)

Пояснения к столбцам:

Ветер - указаны скорость ветра в м/с - средняя за 10 мин, порывы в срок и между сроками (в фигурных скобках) и направление, откуда дует ветер: С - северный, СВ - северо-восточный, В - восточный, ЮВ - юго-восточный, Ю - южный, ЮЗ - юго-западный, З - западный, СЗ - северо-западный.
Видимость - горизонтальная дальность видимости в метрах или километрах. При видимости от 1 до 10 км при отсутствии осадков обычно наблюдается дымка, при ухудшении видимости до 1 км и менее - туман. В сухую погоду видимость может ухудшаться дымом, пылью или мглою.
Явления - указаны атмосферные явления, наблюдавшиеся в срок или в последний час перед сроком; фигурными скобками обозначены явления, наблюдавшиеся между сроками (за 1-3 часа до срока); квадратными скобками обозначены град или гололедные отложения с указанием их диаметра в мм.
Облачность - указаны через наклонную черту общая и нижняя облачность в баллах и высота нижней границы облаков в метрах; квадратными скобками обозначены формы облаков: Ci - перистые, Cs - перисто-слоистые, Cc - перисто-кучевые, Ac - высококучевые, As - высокослоистые, Sc - слоисто-кучевые, Ns - слоисто-дождевые, Cu - кучевые, Cb - кучево-дождевые. Подробнее классификацию облаков см. в Атласе облаков (PDF).
T - Температура воздуха - температура, измеренная на высоте 2 м над землей.
Td - Температура точки росы - температура, при понижении до которой содержащийся в воздухе водяной пар достигнет насыщения.
f - Относительная влажность воздуха - влажноcть воздуха, измеренная на высоте 2 м над землей.
Te - Эффективная температура - температура, которую ощущает одетый по сезону человек в тени. Характеристика душности погоды. При расчете учитывается влияние влажности воздуха и скорости ветра на теплоощущения человека.
Tes - Эффективная температура на солнце - температура, которую ощущает человек, с поправкой на солнечный нагрев. Характеристика знойности погоды. Зависит от высоты солнца над горизонтом, облачности и скорости ветра. Ночью, в пасмурную погоду, а также при ветре 12 м/с и более поправка равна нулю.
P - Атмосферное давление - приведенное к уровню моря атмосферное давление.
Po - Атмосферное давление - измеренное на уровне метеостанции атмосферное давление.
Tmin - Минимальная температура - минимум температуры воздуха на высоте 2 м над землей.
Tmax - Максимальная температура - максимум температуры воздуха на высоте 2 м над землей.
R - Количество осадков - Количество выпавших осадков за период времени, мм. При наведении курсора мыши на число - период времени, за который выпало указанное количество осадков.
R24 - Количество осадков - Количество выпавших осадков за 24 часа, мм.
S - Снежный покров - Высота снежного покрова, см. При наведении курсора мыши на число - состояние снежного покрова и степень покрытия местности в баллах.